[[{"header":{"parameterUnit":"m.s-1","parameterCategory":2,"la1":30.2991,"la2":30.254,"lo1":-89.0895,"lo2":-89.0444,"dy":0.0017,"dx":0.0017,"nx":28,"ny":28,"refTime":"2025-01-11T09:00:00:Z","depth":"0","parameterNumber":2,"parameterNumberName":"U-component_of_CURRENTS"},"data":[0,0,0,0,0,0,0,0,0,0,0,0,0,0,0,0,0,0,0,0,0,0,0,0,0,0,0,0,0,0,0,0,0,0,0,0,0,0,0,0,0,0,0,0,0,0,0,0,0,0,0,0,0,0,0,0,0,0,-0.2405,-0.2406,0,-0.2459,-0.2459,-0.246,-0.2435,-0.2433,-0.2432,-0.2431,-0.2424,-0.2425,-0.2425,0,0,0,0,0,0,0,0,0,0,0,0,0,-0.2287,-0.2289,-0.2405,-0.2406,-0.2406,-0.2459,-0.2459,-0.246,-0.2435,-0.2433,-0.2432,-0.2431,-0.2423,-0.2425,-0.2426,0,0,0,0,0,0,0,0,0,0,0,0,0,-0.2337,-0.229,-0.2405,-0.2402,-0.2403,-0.2459,-0.2459,-0.246,-0.2435,-0.2433,-0.2432,-0.243,-0.2423,-0.2424,-0.2426,-0.2468,0,0,-0.243,-0.243,0,0,0,0,0,0,0,0,-0.2335,-0.2341,-0.2402,-0.2402,-0.2403,-0.244,-0.2416,-0.2461,-0.2436,-0.242,-0.2431,-0.2429,-0.2427,-0.2427,-0.2439,-0.2468,-0.2467,-0.243,-0.2431,-0.2431,-0.2432,0,0,0,0,0,0,0,-0.2331,-0.2339,-0.2424,-0.2403,-0.2404,-0.2401,-0.2406,-0.2424,-0.2429,-0.2421,-0.242,-0.2431,-0.2426,-0.2438,-0.2438,-0.2467,-0.243,-0.2431,-0.2432,-0.2432,-0.2521,-0.2523,0,0,0,0,0,0,-0.2331,-0.2336,-0.2422,-0.2426,-0.2367,-0.2405,-0.241,-0.2428,-0.243,-0.243,-0.2432,-0.243,-0.2436,-0.2437,-0.2438,-0.2478,-0.2431,-0.2432,-0.2433,-0.252,-0.2522,-0.2523,0,0,0,0,0,0,-0.2329,-0.2339,-0.242,-0.2383,-0.2393,-0.2409,-0.2429,-0.243,-0.2436,-0.244,-0.2437,-0.2436,-0.2435,-0.2436,-0.2459,-0.2478,-0.2433,-0.2434,-0.2518,-0.252,-0.2522,-0.2565,0,0,0,0,0,0,-0.2325,-0.2338,-0.2346,-0.2384,-0.2396,-0.2456,-0.2431,-0.2433,-0.2447,-0.2443,-0.2443,-0.2441,-0.2434,-0.2458,-0.2461,-0.2479,-0.2435,-0.2516,-0.2519,-0.2522,-0.2562,-0.2569,-0.2575,0,0,0,0,0,-0.2321,-0.2346,-0.2347,-0.2357,-0.2409,-0.2457,-0.2463,-0.2466,-0.2449,-0.2462,-0.2462,-0.244,-0.2478,-0.246,-0.2463,-0.2482,-0.2514,-0.2518,-0.2521,-0.2559,-0.2567,-0.2575,0,0,0,0,0,0,-0.2298,-0.2347,-0.2348,-0.2385,-0.2418,-0.2453,-0.2467,-0.247,-0.2483,-0.2474,-0.2465,-0.2465,-0.2494,-0.2488,-0.2469,-0.2518,-0.2491,-0.2496,-0.2519,-0.2527,-0.2533,-0.2526,-0.2436,0,0,0,0,0,-0.23,-0.2328,-0.2372,-0.2399,-0.2417,-0.2441,-0.2458,-0.2466,-0.2486,-0.2489,-0.2491,-0.2496,-0.2516,-0.2519,-0.2535,-0.2564,-0.2539,-0.2578,-0.2585,-0.259,-0.2588,-0.2586,-0.2592,-0.2535,-0.2535,-0.2535,0,0,-0.2296,-0.2328,-0.2342,-0.2396,-0.2417,-0.2458,-0.2446,-0.248,-0.2508,-0.2488,-0.2516,-0.2523,-0.2531,-0.2564,-0.2575,-0.2556,-0.259,-0.2595,-0.2599,-0.2594,-0.2591,-0.2596,-0.26,-0.2537,-0.2537,-0.2537,0,0,-0.2312,-0.2334,-0.2364,-0.2399,-0.2443,-0.2467,-0.2478,-0.2518,-0.2526,-0.2565,-0.2557,-0.2576,-0.2601,-0.2613,-0.2621,-0.2677,-0.2629,-0.2677,-0.2698,-0.2697,-0.2701,-0.2704,-0.2659,-0.2658,-0.2674,-0.2675,-0.2675,0,-0.2303,-0.2349,-0.2379,-0.2422,-0.2449,-0.2472,-0.2511,-0.2538,-0.2578,-0.259,-0.2576,-0.2623,-0.2628,-0.2668,-0.2683,-0.269,-0.2662,-0.2665,-0.2703,-0.2706,-0.2709,-0.2662,-0.266,-0.2677,-0.2677,-0.2676,-0.2676,0,-0.2345,-0.2381,-0.2404,-0.2462,-0.2499,-0.2537,-0.2583,-0.2611,-0.2621,-0.264,-0.2678,-0.2692,-0.271,-0.2723,-0.2717,-0.2746,-0.2709,-0.2714,-0.2677,-0.2716,-0.2665,-0.2662,-0.2681,-0.268,-0.2679,-0.2678,0,0,-0.2321,-0.2414,-0.2418,-0.2446,-0.2521,-0.2553,-0.2611,-0.2663,-0.2683,-0.2717,-0.274,-0.2783,-0.2773,-0.2782,-0.2781,-0.2781,-0.2771,-0.275,-0.2749,-0.2693,-0.2728,-0.262,-0.2605,-0.2776,-0.2777,-0.2777,-0.2676,0,-0.2336,-0.241,-0.2459,-0.252,-0.2557,-0.2607,-0.2653,-0.2702,-0.2732,-0.276,-0.278,-0.2801,-0.2801,-0.28,-0.2807,-0.2788,-0.2769,-0.2795,-0.2708,-0.2705,-0.2595,-0.2602,-0.2471,-0.2364,-0.2673,-0.2672,-0.2672,0,-0.235,-0.2399,-0.2461,-0.2538,-0.2558,-0.2597,-0.2661,-0.271,-0.2765,-0.2784,-0.2815,-0.2823,-0.2842,-0.2827,-0.2807,-0.2818,-0.2772,-0.2749,-0.2744,-0.2626,-0.2592,-0.2381,-0.2347,-0.2334,-0.2667,-0.2668,-0.2668,0,-0.2296,-0.2393,-0.2435,-0.2465,-0.2562,-0.2589,-0.2636,-0.2703,-0.2734,-0.279,-0.28,-0.2834,-0.2827,-0.2812,-0.2768,-0.2782,-0.2717,-0.2733,-0.2587,-0.2577,-0.244,-0.2418,-0.2374,-0.2701,-0.2701,-0.2702,-0.2702,0,-0.2284,-0.2313,-0.2408,-0.2429,-0.2466,-0.2551,-0.2587,-0.2642,-0.2706,-0.2728,-0.2792,-0.2798,-0.2821,-0.2792,-0.276,-0.265,-0.2708,-0.2577,-0.2548,-0.2449,-0.243,-0.2391,-0.244,-0.2698,-0.2699,-0.2699,-0.27,0,-0.2204,-0.2277,-0.2319,-0.2413,-0.2438,-0.2457,-0.2542,-0.2565,-0.2644,-0.2673,-0.2686,-0.275,-0.271,-0.2701,-0.2656,-0.2608,-0.2486,-0.2481,-0.2338,-0.2294,-0.2144,-0.2201,-0.2135,-0.2069,-0.2302,-0.2299,-0.2296,0,-0.2166,-0.2182,-0.227,-0.2283,-0.2317,-0.2366,-0.2392,-0.2504,-0.2537,-0.2631,-0.2629,-0.2625,-0.2582,-0.2478,-0.2396,-0.2289,-0.2336,-0.2121,-0.2136,-0.2102,-0.2145,-0.2204,-0.2159,-0.1962,-0.1957,-0.1953,-0.1949,0,-0.2072,-0.2101,-0.2132,-0.2162,-0.2191,-0.2228,-0.2284,-0.2303,-0.2427,-0.2454,-0.2468,-0.2443,-0.2355,-0.22,-0.2079,-0.2012,-0.2073,-0.2027,-0.2042,-0.191,-0.1922,-0.1854,-0.2048,-0.1911,-0.1915,-0.1918,-0.192,-0.1922,-0.1974,-0.1965,-0.2003,-0.2016,-0.2049,-0.2058,-0.2037,-0.2109,-0.2129,-0.2139,-0.2234,-0.2158,-0.208,-0.188,-0.1801,-0.1647,-0.1762,-0.161,-0.1686,-0.1752,-0.1679,-0.1764,-0.1573,-0.1575,-0.1577,-0.1578,-0.1579,0,-0.1844,-0.1849,-0.1852,-0.1865,-0.1835,-0.1904,-0.1932,-0.1885,-0.1846,-0.1897,-0.1874,-0.1811,-0.1642,-0.1591,-0.1446,-0.1356,-0.1334,-0.1343,-0.1415,-0.1387,-0.1479,-0.1453,-0.1165,-0.1165,-0.1165,-0.1165,-0.1165,-0.1165,-0.1777,-0.173,-0.1734,-0.1641,-0.164,-0.1552,-0.1528,-0.1486,-0.1489,-0.1424,-0.1423,-0.1462,-0.1473,-0.1537,-0.1381,-0.1281,-0.1284,-0.1226,-0.1292,-0.139,-0.1423,-0.1454,-0.1438,-0.1153,-0.1153,-0.1111,-0.1111,-0.1111]},{"header":{"parameterUnit":"m.s-1","parameterCategory":2,"la1":30.2991,"la2":30.254,"lo1":-89.0895,"lo2":-89.0444,"dy":0.0017,"dx":0.0017,"nx":28,"ny":28,"refTime":"2025-01-11T09:00:00:Z","depth":"0","parameterNumber":3,"parameterNumberName":"V-component_of_CURRENTS"},"data":[0,0,0,0,0,0,0,0,0,0,0,0,0,0,0,0,0,0,0,0,0,0,0,0,0,0,0,0,0,0,0,0,0,0,0,0,0,0,0,0,0,0,0,0,0,0,0,0,0,0,0,0,0,0,0,0,0,0,-0.0323,-0.0322,0,-0.0233,-0.0232,-0.0231,-0.0171,-0.017,-0.017,-0.0169,-0.0055,-0.0052,-0.005,0,0,0,0,0,0,0,0,0,0,0,0,0,-0.0389,-0.0389,-0.0323,-0.0322,-0.032,-0.0233,-0.0232,-0.0231,-0.0171,-0.017,-0.017,-0.0169,-0.0056,-0.0053,-0.0049,0,0,0,0,0,0,0,0,0,0,0,0,0,-0.0336,-0.0388,-0.0323,-0.028,-0.0275,-0.0234,-0.0232,-0.0231,-0.0171,-0.017,-0.017,-0.0169,-0.0057,-0.0053,-0.0049,-0.0037,0,0,-0.0037,-0.0035,0,0,0,0,0,0,0,0,-0.0339,-0.0334,-0.0287,-0.0283,-0.0277,-0.0213,-0.0214,-0.0165,-0.0171,-0.021,-0.0169,-0.0169,-0.0106,-0.0098,-0.0082,-0.0032,-0.0027,-0.0036,-0.0034,-0.0032,-0.0031,0,0,0,0,0,0,0,-0.0343,-0.0337,-0.0287,-0.0286,-0.028,-0.0247,-0.024,-0.0204,-0.0162,-0.0207,-0.0202,-0.0193,-0.0103,-0.0087,-0.0079,-0.0025,-0.0036,-0.0033,-0.003,-0.0029,0.006,0.006,0,0,0,0,0,0,-0.0358,-0.0341,-0.029,-0.0284,-0.0308,-0.0247,-0.0238,-0.0234,-0.0163,-0.0152,-0.0193,-0.019,-0.0094,-0.0084,-0.0075,-0.0058,-0.0032,-0.0029,-0.0026,0.006,0.006,0.006,0,0,0,0,0,0,-0.036,-0.0354,-0.0293,-0.031,-0.03,-0.0247,-0.0242,-0.0232,-0.0215,-0.0153,-0.0141,-0.0186,-0.0093,-0.0081,-0.0047,-0.0053,-0.0027,-0.0023,0.006,0.006,0.006,-0.0022,0,0,0,0,0,0,-0.0362,-0.0356,-0.0361,-0.0312,-0.03,-0.0279,-0.0243,-0.0231,-0.0211,-0.0206,-0.0143,-0.0132,-0.0091,-0.0053,-0.0043,-0.0047,-0.002,0.006,0.006,0.006,-0.0019,-0.0025,-0.003,0,0,0,0,0,-0.0365,-0.0378,-0.0362,-0.0355,-0.0308,-0.028,-0.0271,-0.023,-0.0211,-0.0211,-0.0167,-0.0134,-0.0046,-0.0051,-0.0038,-0.0041,0.006,0.006,0.006,-0.0017,-0.0024,-0.0029,0,0,0,0,0,0,-0.0408,-0.0371,-0.0353,-0.0353,-0.0322,-0.027,-0.0265,-0.0237,-0.0202,-0.0196,-0.0137,-0.0123,-0.0095,-0.0056,-0.0062,-0.0014,0.0014,0.0016,-0.0049,-0.0055,-0.006,-0.0074,-0.0017,0,0,0,0,0,-0.0421,-0.0421,-0.0377,-0.0378,-0.0366,-0.0317,-0.0301,-0.0274,-0.0234,-0.0218,-0.0174,-0.0125,-0.0085,-0.0063,-0.0023,0.0001,0.0048,0.0009,0.0004,-0.0001,-0.0003,0.0056,0.0056,0.006,0.006,0.006,0,0,-0.0437,-0.0417,-0.0417,-0.0387,-0.0359,-0.0354,-0.0306,-0.0289,-0.0281,-0.0211,-0.0191,-0.0145,-0.0084,-0.0057,-0.004,-0.0025,0.0024,-0.0001,-0.0005,-0.0005,0.0056,0.0056,0.0055,0.006,0.006,0.006,0,0,-0.0473,-0.0453,-0.0466,-0.0448,-0.0415,-0.0384,-0.0384,-0.0336,-0.0312,-0.0287,-0.0234,-0.0191,-0.0135,-0.0089,-0.0059,-0.0068,-0.0008,-0.0055,-0.009,-0.0034,-0.0034,-0.0033,0.0027,0.0033,-0.0055,-0.0056,-0.0056,0,-0.0495,-0.0503,-0.0465,-0.0472,-0.0465,-0.0405,-0.0417,-0.0384,-0.0332,-0.0312,-0.0293,-0.0197,-0.0149,-0.0103,-0.0106,-0.008,-0.0038,-0.0076,-0.0042,-0.004,-0.0038,0.0023,0.0031,-0.006,-0.0059,-0.0059,-0.0058,0,-0.0537,-0.0544,-0.0551,-0.0541,-0.0529,-0.0529,-0.0483,-0.0463,-0.0426,-0.0386,-0.0336,-0.0265,-0.0206,-0.0184,-0.0148,-0.0109,-0.008,-0.0059,-0.0031,-0.0044,0.0022,0.0032,-0.0065,-0.0064,-0.0063,-0.0062,0,0,-0.0583,-0.0583,-0.0584,-0.0596,-0.0568,-0.0563,-0.055,-0.0516,-0.0502,-0.0442,-0.0416,-0.0341,-0.0291,-0.0253,-0.0195,-0.0145,-0.0094,-0.0105,-0.01,-0.0054,0.0034,0.0072,0.0088,-0.0071,-0.0069,-0.0068,0.0074,0,-0.0627,-0.0665,-0.0647,-0.0679,-0.0695,-0.0646,-0.064,-0.0601,-0.0551,-0.051,-0.042,-0.0373,-0.0319,-0.029,-0.0232,-0.0131,-0.0072,-0.0135,0.0048,0.0054,0.0082,0.0099,0.0146,0.0279,0.0085,0.0086,0.0088,0,-0.0673,-0.0695,-0.0738,-0.0752,-0.0753,-0.0759,-0.0734,-0.0718,-0.064,-0.0601,-0.0529,-0.0453,-0.0365,-0.032,-0.0151,-0.0195,-0.0089,-0.0007,0.0001,0.0072,0.0111,0.0262,0.0305,0.0491,0.0104,0.0103,0.0101,0,-0.0728,-0.0757,-0.0797,-0.0802,-0.0804,-0.0809,-0.0801,-0.0745,-0.073,-0.065,-0.0622,-0.0506,-0.0441,-0.0305,-0.013,-0.014,0.0062,0.0073,0.0214,0.0219,0.0314,0.0325,0.0552,0.0199,0.0199,0.0198,0.0198,0,-0.0784,-0.0815,-0.0827,-0.085,-0.0892,-0.0868,-0.0886,-0.0854,-0.0804,-0.0783,-0.067,-0.0616,-0.0436,-0.0293,-0.0142,0.0072,0.0062,0.0217,0.026,0.0287,0.0293,0.0503,0.0571,0.0204,0.0203,0.0202,0.0201,0,-0.0834,-0.0842,-0.0892,-0.0913,-0.0921,-0.0949,-0.0953,-0.0957,-0.0899,-0.0865,-0.0842,-0.0693,-0.0506,-0.0306,-0.0071,0.0061,0.0381,0.0338,0.0358,0.04,0.0679,0.0739,0.0998,0.112,0.0508,0.051,0.0512,0,-0.0863,-0.0893,-0.0944,-0.0978,-0.0991,-0.1024,-0.1042,-0.101,-0.1008,-0.0902,-0.0888,-0.0704,-0.0555,-0.0196,0.0067,0.0351,0.0496,0.0555,0.0542,0.0715,0.0815,0.0854,0.094,0.0645,0.0648,0.065,0.0651,0,-0.0914,-0.0928,-0.0968,-0.1044,-0.1083,-0.1125,-0.1145,-0.1161,-0.1105,-0.1046,-0.0931,-0.0799,-0.0444,-0.0104,0.0257,0.0431,0.07,0.0604,0.0793,0.0949,0.1002,0.1132,0.053,0.067,0.0668,0.0666,0.0665,0.0665,-0.094,-0.0982,-0.1034,-0.1102,-0.1156,-0.1208,-0.1229,-0.1226,-0.1201,-0.109,-0.0966,-0.0719,-0.0234,0.0284,0.0483,0.0918,0.0878,0.1054,0.1116,0.1144,0.1254,0.0685,0.0859,0.0858,0.0857,0.0857,0.0856,0,-0.0965,-0.1013,-0.1087,-0.1164,-0.1226,-0.1239,-0.1279,-0.1263,-0.1217,-0.1072,-0.0915,-0.0367,0.0126,0.0578,0.1175,0.1422,0.1482,0.1546,0.1634,0.1701,0.1221,0.122,0.1468,0.1468,0.1468,0.1468,0.1468,0.1467,-0.0978,-0.1045,-0.1086,-0.1193,-0.1247,-0.1292,-0.1305,-0.1258,-0.1153,-0.0863,-0.0556,-0.0315,0.0338,0.1287,0.1856,0.1916,0.2146,0.2116,0.2239,0.1919,0.1878,0.1838,0.1856,0.2235,0.2235,0.2718,0.2722,0.2726]}],[{"header":{"parameterUnit":"m.s-1","parameterCategory":2,"la1":30.2991,"la2":30.254,"lo1":-89.0895,"lo2":-89.0444,"dy":0.0017,"dx":0.0017,"nx":28,"ny":28,"refTime":"2025-01-11T09:00:00:Z","depth":"2","parameterNumber":2,"parameterNumberName":"U-component_of_CURRENTS"},"data":[0,0,0,0,0,0,0,0,0,0,0,0,0,0,0,0,0,0,0,0,0,0,0,0,0,0,0,0,0,0,0,0,0,0,0,0,0,0,0,0,0,0,0,0,0,0,0,0,0,0,0,0,0,0,0,0,0,0,-0.2237,-0.2238,0,-0.2286,-0.2287,-0.2287,-0.2272,-0.2271,-0.227,-0.2269,-0.2274,-0.2275,-0.2276,0,0,0,0,0,0,0,0,0,0,0,0,0,-0.2141,-0.2143,-0.2237,-0.2238,-0.2239,-0.2286,-0.2287,-0.2287,-0.2272,-0.2271,-0.227,-0.2269,-0.2274,-0.2275,-0.2276,0,0,0,0,0,0,0,0,0,0,0,0,0,-0.2184,-0.2143,-0.2237,-0.2238,-0.2239,-0.2286,-0.2287,-0.2287,-0.2272,-0.2271,-0.227,-0.2268,-0.2273,-0.2275,-0.2276,-0.2311,0,0,-0.228,-0.2281,0,0,0,0,0,0,0,0,-0.2182,-0.2187,-0.2237,-0.2238,-0.2239,-0.2273,-0.2255,-0.2294,-0.2273,-0.2258,-0.2269,-0.2268,-0.2272,-0.2274,-0.2283,-0.2311,-0.2311,-0.2281,-0.2281,-0.2282,-0.2282,0,0,0,0,0,0,0,-0.2179,-0.2185,-0.2255,-0.2238,-0.224,-0.224,-0.2245,-0.2262,-0.2269,-0.2259,-0.2258,-0.2267,-0.2272,-0.2282,-0.2283,-0.2311,-0.2281,-0.2282,-0.2283,-0.2283,-0.2371,-0.2372,0,0,0,0,0,0,-0.2178,-0.2183,-0.2253,-0.2256,-0.2209,-0.2243,-0.2248,-0.2262,-0.227,-0.2271,-0.2268,-0.2266,-0.228,-0.2282,-0.2283,-0.2326,-0.2282,-0.2283,-0.2284,-0.2369,-0.2371,-0.2373,0,0,0,0,0,0,-0.2176,-0.2184,-0.2251,-0.2222,-0.223,-0.2246,-0.2262,-0.2264,-0.2272,-0.2278,-0.2277,-0.2275,-0.2279,-0.2281,-0.2307,-0.2326,-0.2284,-0.2285,-0.2368,-0.237,-0.2372,-0.2411,0,0,0,0,0,0,-0.2173,-0.2183,-0.219,-0.2222,-0.2232,-0.2283,-0.2264,-0.2266,-0.2281,-0.2279,-0.2284,-0.2283,-0.2279,-0.2305,-0.2308,-0.2327,-0.2286,-0.2366,-0.2369,-0.2371,-0.2408,-0.2415,-0.242,0,0,0,0,0,-0.2169,-0.2189,-0.219,-0.2199,-0.2242,-0.2284,-0.229,-0.2294,-0.2283,-0.2295,-0.23,-0.2283,-0.2324,-0.2307,-0.2311,-0.2331,-0.2364,-0.2368,-0.2371,-0.2405,-0.2413,-0.242,0,0,0,0,0,0,-0.215,-0.219,-0.2192,-0.2222,-0.2251,-0.2282,-0.2294,-0.23,-0.2315,-0.2309,-0.2305,-0.2306,-0.2337,-0.2333,-0.2315,-0.2366,-0.2341,-0.2345,-0.2366,-0.2373,-0.2379,-0.2372,-0.2287,0,0,0,0,0,-0.2151,-0.2173,-0.2212,-0.2233,-0.2249,-0.2271,-0.2287,-0.2296,-0.2316,-0.2321,-0.2327,-0.2336,-0.2357,-0.2362,-0.238,-0.2409,-0.2387,-0.2424,-0.243,-0.2435,-0.2433,-0.2435,-0.244,-0.2384,-0.2384,-0.2384,0,0,-0.2149,-0.2174,-0.2185,-0.223,-0.2249,-0.2285,-0.2277,-0.2308,-0.2335,-0.2321,-0.2352,-0.2361,-0.2372,-0.2405,-0.2417,-0.24,-0.2438,-0.2439,-0.2443,-0.2438,-0.2439,-0.2444,-0.2448,-0.2386,-0.2386,-0.2385,0,0,-0.216,-0.2179,-0.2202,-0.2232,-0.2271,-0.2293,-0.2304,-0.2342,-0.2353,-0.2392,-0.2389,-0.2411,-0.2439,-0.2452,-0.2461,-0.2513,-0.2474,-0.2516,-0.2535,-0.2537,-0.2541,-0.2545,-0.2508,-0.2507,-0.2514,-0.2514,-0.2514,0,-0.2155,-0.219,-0.2215,-0.225,-0.2275,-0.2299,-0.2332,-0.2359,-0.24,-0.2413,-0.2405,-0.2456,-0.2463,-0.2503,-0.2518,-0.2526,-0.2503,-0.2504,-0.2543,-0.2546,-0.2549,-0.251,-0.251,-0.2516,-0.2516,-0.2516,-0.2515,0,-0.2187,-0.2216,-0.2234,-0.2284,-0.2317,-0.235,-0.2394,-0.2424,-0.2438,-0.246,-0.2501,-0.2518,-0.254,-0.2553,-0.255,-0.2581,-0.2549,-0.2553,-0.2519,-0.2557,-0.2514,-0.2512,-0.2519,-0.2519,-0.2518,-0.2517,0,0,-0.2165,-0.2241,-0.2245,-0.2268,-0.2335,-0.2364,-0.2419,-0.2469,-0.2492,-0.2529,-0.2555,-0.26,-0.2596,-0.2607,-0.2609,-0.2612,-0.261,-0.2587,-0.2586,-0.2539,-0.2579,-0.2475,-0.2463,-0.2615,-0.2616,-0.2616,-0.2534,0,-0.2177,-0.2236,-0.2278,-0.233,-0.2361,-0.2409,-0.2453,-0.2502,-0.2535,-0.2567,-0.2592,-0.2618,-0.2621,-0.2624,-0.2634,-0.2623,-0.261,-0.2629,-0.2559,-0.2556,-0.2451,-0.246,-0.2276,-0.2181,-0.2532,-0.2532,-0.2532,0,-0.2185,-0.2225,-0.2277,-0.2343,-0.2361,-0.2397,-0.246,-0.2507,-0.2565,-0.2588,-0.2623,-0.2636,-0.2661,-0.265,-0.2642,-0.2651,-0.2614,-0.2597,-0.2593,-0.2481,-0.245,-0.2206,-0.2165,-0.2528,-0.2529,-0.2529,-0.2529,0,-0.2138,-0.2218,-0.2253,-0.2279,-0.2364,-0.2391,-0.2435,-0.2503,-0.2534,-0.2594,-0.2607,-0.2648,-0.2649,-0.2642,-0.2613,-0.2624,-0.2578,-0.259,-0.2458,-0.2448,-0.227,-0.2244,-0.2567,-0.2567,-0.2568,-0.2568,-0.2568,0,-0.2125,-0.2149,-0.223,-0.2248,-0.2281,-0.2357,-0.2393,-0.2447,-0.2511,-0.2534,-0.2602,-0.261,-0.2646,-0.2629,-0.2606,-0.2514,-0.2571,-0.2449,-0.2424,-0.2276,-0.2254,-0.2545,-0.2544,-0.2565,-0.2565,-0.2566,-0.2567,0,-0.2056,-0.2117,-0.2152,-0.2234,-0.2256,-0.2275,-0.2353,-0.2375,-0.2454,-0.2485,-0.25,-0.2569,-0.2542,-0.2547,-0.2518,-0.2478,-0.2422,-0.237,-0.2175,-0.2128,-0.2289,-0.2291,-0.2215,-0.2211,-0.2207,-0.2204,-0.2202,0,-0.2022,-0.2035,-0.211,-0.2119,-0.215,-0.2195,-0.2218,-0.2322,-0.235,-0.2445,-0.2443,-0.2453,-0.2416,-0.2338,-0.2269,-0.218,-0.2293,-0.1976,-0.1975,-0.2271,-0.2255,-0.2263,-0.2269,-0.1745,-0.1739,-0.1734,-0.173,0,-0.194,-0.1966,-0.1992,-0.2014,-0.2039,-0.2068,-0.2117,-0.2131,-0.2245,-0.2267,-0.2281,-0.2261,-0.2196,-0.2027,-0.1931,-0.187,-0.1983,-0.187,-0.2225,-0.187,-0.1824,-0.181,-0.1832,-0.1686,-0.169,-0.1693,-0.1696,-0.1698,-0.1857,-0.1849,-0.1879,-0.1885,-0.1913,-0.1914,-0.1888,-0.1945,-0.1954,-0.1956,-0.2047,-0.1956,-0.1942,-0.1684,-0.1586,-0.1514,-0.1658,-0.1602,-0.1619,-0.1642,-0.161,-0.156,-0.1364,-0.1366,-0.1369,-0.137,-0.1372,0,-0.1744,-0.1747,-0.1745,-0.1749,-0.1717,-0.1779,-0.1791,-0.1738,-0.1686,-0.1712,-0.1685,-0.15,-0.1363,-0.1359,-0.1165,-0.1126,-0.1135,-0.1091,-0.1114,-0.1157,-0.1195,-0.1144,-0.0773,-0.0772,-0.077,-0.0769,0,0,-0.1685,-0.1641,-0.1638,-0.1546,-0.1541,-0.1454,-0.1424,-0.137,-0.1349,-0.1255,-0.1207,-0.1286,-0.1309,-0.1051,-0.0981,-0.0847,-0.0997,-0.0796,-0.1272,-0.1341,-0.1378,-0.1477,-0.1444,0,0,0,0,0]},{"header":{"parameterUnit":"m.s-1","parameterCategory":2,"la1":30.2991,"la2":30.254,"lo1":-89.0895,"lo2":-89.0444,"dy":0.0017,"dx":0.0017,"nx":28,"ny":28,"refTime":"2025-01-11T09:00:00:Z","depth":"2","parameterNumber":3,"parameterNumberName":"V-component_of_CURRENTS"},"data":[0,0,0,0,0,0,0,0,0,0,0,0,0,0,0,0,0,0,0,0,0,0,0,0,0,0,0,0,0,0,0,0,0,0,0,0,0,0,0,0,0,0,0,0,0,0,0,0,0,0,0,0,0,0,0,0,0,0,-0.0183,-0.0183,0,-0.0107,-0.0106,-0.0106,-0.0052,-0.0052,-0.0051,-0.0051,0.005,0.0053,0.0055,0,0,0,0,0,0,0,0,0,0,0,0,0,-0.0236,-0.0236,-0.0183,-0.0182,-0.0182,-0.0108,-0.0106,-0.0105,-0.0052,-0.0052,-0.0051,-0.0051,0.005,0.0052,0.0055,0,0,0,0,0,0,0,0,0,0,0,0,0,-0.0192,-0.0235,-0.0184,-0.0146,-0.0142,-0.0108,-0.0106,-0.0105,-0.0052,-0.0052,-0.0051,-0.005,0.0049,0.0052,0.0055,0.0065,0,0,0.0066,0.0068,0,0,0,0,0,0,0,0,-0.0194,-0.019,-0.0153,-0.0149,-0.0144,-0.0089,-0.0088,-0.0047,-0.0052,-0.0086,-0.0051,-0.005,0.0005,0.0012,0.0026,0.007,0.0074,0.0066,0.0069,0.007,0.0071,0,0,0,0,0,0,0,-0.0198,-0.0192,-0.0153,-0.0152,-0.0147,-0.0117,-0.0111,-0.008,-0.0044,-0.0083,-0.0079,-0.0071,0.0008,0.0022,0.0028,0.0076,0.0066,0.0069,0.0072,0.0073,0.0147,0.0147,0,0,0,0,0,0,-0.0211,-0.0196,-0.0155,-0.0151,-0.0169,-0.0117,-0.011,-0.0107,-0.0044,-0.0035,-0.0072,-0.0069,0.0016,0.0024,0.0032,0.0045,0.007,0.0073,0.0075,0.0147,0.0147,0.0147,0,0,0,0,0,0,-0.0212,-0.0208,-0.0158,-0.0171,-0.0163,-0.0117,-0.0114,-0.0106,-0.0091,-0.0036,-0.0026,-0.0066,0.0017,0.0027,0.0055,0.0049,0.0075,0.0078,0.0147,0.0147,0.0147,0.0072,0,0,0,0,0,0,-0.0214,-0.0209,-0.0214,-0.0173,-0.0163,-0.0148,-0.0114,-0.0105,-0.0088,-0.0083,-0.0028,-0.0018,0.0018,0.005,0.0059,0.0054,0.0081,0.0148,0.0147,0.0147,0.0074,0.0069,0.0064,0,0,0,0,0,-0.0216,-0.0229,-0.0215,-0.021,-0.0171,-0.0148,-0.0141,-0.0106,-0.0088,-0.0089,-0.005,-0.002,0.0055,0.0052,0.0063,0.0059,0.0148,0.0147,0.0147,0.0076,0.007,0.0064,0,0,0,0,0,0,-0.0254,-0.0223,-0.0208,-0.021,-0.0185,-0.014,-0.0137,-0.0112,-0.0082,-0.0077,-0.0024,-0.0012,0.0011,0.0046,0.0041,0.0081,0.0108,0.0109,0.005,0.0044,0.0039,0.0027,0.0084,0,0,0,0,0,-0.0265,-0.0267,-0.023,-0.0233,-0.0223,-0.0181,-0.0168,-0.0145,-0.0111,-0.0097,-0.0059,-0.0016,0.0018,0.0038,0.0072,0.0092,0.0135,0.0099,0.0094,0.0089,0.0087,0.014,0.014,0.0146,0.0146,0.0146,0,0,-0.028,-0.0264,-0.0264,-0.0241,-0.0218,-0.0215,-0.0172,-0.0158,-0.0153,-0.0091,-0.0075,-0.0035,0.0019,0.0041,0.0055,0.0069,0.0111,0.0089,0.0084,0.0085,0.014,0.0139,0.0139,0.0146,0.0146,0.0146,0,0,-0.0313,-0.0297,-0.0309,-0.0295,-0.0268,-0.0243,-0.0243,-0.0203,-0.0182,-0.0163,-0.0115,-0.0079,-0.0031,0.0009,0.0036,0.0025,0.008,0.0035,0.0002,0.0053,0.0053,0.0053,0.0108,0.0114,0.0035,0.0035,0.0035,0,-0.0333,-0.0341,-0.0309,-0.0317,-0.0313,-0.0261,-0.0274,-0.0246,-0.0203,-0.0187,-0.0169,-0.0088,-0.0045,-0.0006,-0.001,0.0013,0.0051,0.0017,0.0046,0.0047,0.0049,0.0105,0.0112,0.0031,0.0032,0.0032,0.0032,0,-0.0372,-0.038,-0.0386,-0.0381,-0.0373,-0.0375,-0.0336,-0.032,-0.029,-0.0256,-0.0215,-0.0152,-0.0101,-0.0082,-0.005,-0.0017,0.001,0.0029,0.0057,0.0043,0.0103,0.0112,0.0026,0.0027,0.0028,0.0029,0,0,-0.0415,-0.0415,-0.0418,-0.043,-0.0408,-0.0406,-0.0398,-0.0372,-0.0362,-0.0311,-0.0289,-0.0225,-0.0182,-0.0149,-0.0096,-0.0051,-0.0005,-0.0013,-0.0009,0.0033,0.011,0.0136,0.0149,0.0016,0.0017,0.0018,0.0148,0,-0.0456,-0.0492,-0.0477,-0.0509,-0.0525,-0.0484,-0.0482,-0.045,-0.0409,-0.0374,-0.0295,-0.0256,-0.0209,-0.0183,-0.0131,-0.004,0.0015,-0.0042,0.0124,0.013,0.0148,0.0159,0.0137,0.0251,0.0157,0.0158,0.016,0,-0.0501,-0.052,-0.0562,-0.0576,-0.0578,-0.0586,-0.057,-0.0559,-0.0492,-0.046,-0.0399,-0.0332,-0.0254,-0.0213,-0.0061,-0.0102,-0.0003,0.0073,0.008,0.0136,0.0172,0.0251,0.0271,0.0175,0.0174,0.0173,0.0172,0,-0.0552,-0.058,-0.0617,-0.0623,-0.0627,-0.0634,-0.0629,-0.0585,-0.0575,-0.0506,-0.0484,-0.0383,-0.0325,-0.0201,-0.0044,-0.0052,0.0129,0.0142,0.0264,0.0268,0.0299,0.0303,0.0258,0.0258,0.0258,0.0257,0.0257,0,-0.0605,-0.0634,-0.0645,-0.0667,-0.0708,-0.0688,-0.0709,-0.0684,-0.0644,-0.063,-0.053,-0.0486,-0.0321,-0.0194,-0.0055,0.0133,0.0127,0.0265,0.0304,0.0273,0.0273,0.0245,0.0242,0.0262,0.0261,0.026,0.0259,0,-0.0655,-0.066,-0.0707,-0.0726,-0.0735,-0.0763,-0.0773,-0.0779,-0.0732,-0.0708,-0.0688,-0.0558,-0.0393,-0.0211,0.0004,0.012,0.0295,0.0369,0.0323,0.0353,0.0403,0.0395,0.0512,0.0514,0.0515,0.0517,0.0518,0,-0.0683,-0.071,-0.0756,-0.0788,-0.08,-0.0833,-0.0854,-0.0829,-0.083,-0.0745,-0.0733,-0.0573,-0.0442,-0.0121,0.0106,0.0359,0.0362,0.0485,0.0466,0.0404,0.043,0.0419,0.0408,0.0485,0.0485,0.0486,0.0487,0,-0.0734,-0.0746,-0.0781,-0.0851,-0.0889,-0.0929,-0.095,-0.0967,-0.0922,-0.0873,-0.0775,-0.066,-0.0355,-0.0085,0.0232,0.0377,0.0435,0.0506,0.0471,0.0413,0.0386,0.0409,0.0398,0.0493,0.0492,0.0492,0.0491,0.0491,-0.0762,-0.0801,-0.0846,-0.0909,-0.0958,-0.1007,-0.1028,-0.1024,-0.1004,-0.0906,-0.0804,-0.0591,-0.0348,0.011,0.0327,0.0529,0.0521,0.058,0.0575,0.057,0.0532,0.0509,0.0633,0.0633,0.0633,0.0633,0.0633,0,-0.0791,-0.0834,-0.09,-0.0969,-0.1025,-0.1038,-0.1074,-0.1056,-0.1013,-0.0887,-0.0749,-0.0451,-0.0144,0.0116,0.0439,0.0623,0.0604,0.0653,0.0591,0.0585,0.0579,0.0539,0.0643,0.0643,0.0644,0.0644,0,0,-0.0807,-0.0869,-0.0903,-0.1,-0.1049,-0.109,-0.1102,-0.105,-0.0955,-0.0808,-0.0641,-0.0429,-0.012,0.011,0.0336,0.0504,0.0498,0.052,0.0494,0.0389,0.0381,0.0521,0.045,0,0,0,0,0]}],[{"header":{"parameterUnit":"m.s-1","parameterCategory":2,"la1":30.2991,"la2":30.254,"lo1":-89.0895,"lo2":-89.0444,"dy":0.0017,"dx":0.0017,"nx":28,"ny":28,"refTime":"2025-01-11T09:00:00:Z","depth":"4","parameterNumber":2,"parameterNumberName":"U-component_of_CURRENTS"},"data":[0,0,0,0,0,0,0,0,0,0,0,0,0,0,0,0,0,0,0,0,0,0,0,0,0,0,0,0,0,0,0,0,0,0,0,0,0,0,0,0,0,0,0,0,0,0,0,0,0,0,0,0,0,0,0,0,0,0,-0.1613,-0.1614,0,-0.1685,-0.1685,-0.1686,-0.1726,-0.1726,-0.1727,-0.1727,-0.1796,-0.1798,-0.18,0,0,0,0,0,0,0,0,0,0,0,0,0,-0.152,-0.1521,-0.1613,-0.1614,-0.1615,-0.1684,-0.1685,-0.1686,-0.1726,-0.1726,-0.1727,-0.1727,-0.1796,-0.1798,-0.18,0,0,0,0,0,0,0,0,0,0,0,0,0,-0.1572,-0.1522,-0.1613,-0.1644,-0.1648,-0.1684,-0.1685,-0.1686,-0.1726,-0.1726,-0.1727,-0.1727,-0.1795,-0.1798,-0.18,-0.1808,0,0,-0.1808,-0.1809,0,0,0,0,0,0,0,0,-0.1569,-0.1575,-0.1639,-0.1642,-0.1646,-0.1698,-0.1678,-0.1727,-0.1726,-0.1695,-0.1727,-0.1727,-0.1764,-0.1769,-0.178,-0.1811,-0.1814,-0.1808,-0.1809,-0.181,-0.1811,0,0,0,0,0,0,0,-0.1565,-0.1572,-0.164,-0.164,-0.1644,-0.1658,-0.1665,-0.1688,-0.1726,-0.1698,-0.1701,-0.1711,-0.1766,-0.1777,-0.1782,-0.1815,-0.1808,-0.181,-0.1811,-0.1812,-0.1933,-0.1935,0,0,0,0,0,0,-0.1558,-0.1569,-0.1638,-0.1642,-0.1609,-0.1659,-0.1668,-0.168,-0.1726,-0.1733,-0.171,-0.1712,-0.1773,-0.1779,-0.1784,-0.1865,-0.181,-0.1813,-0.1814,-0.1932,-0.1934,-0.1936,0,0,0,0,0,0,-0.1556,-0.1563,-0.1635,-0.1608,-0.1618,-0.166,-0.1674,-0.1681,-0.172,-0.1735,-0.1743,-0.1745,-0.1774,-0.1781,-0.1833,-0.1865,-0.1814,-0.1816,-0.193,-0.1932,-0.1935,-0.1982,0,0,0,0,0,0,-0.1553,-0.1562,-0.1581,-0.1607,-0.1619,-0.1675,-0.1674,-0.1682,-0.1724,-0.1728,-0.1767,-0.1772,-0.1774,-0.183,-0.1836,-0.1868,-0.1818,-0.1927,-0.1931,-0.1934,-0.1978,-0.1986,-0.1992,0,0,0,0,0,-0.1549,-0.1571,-0.1582,-0.1591,-0.164,-0.1676,-0.1684,-0.1714,-0.1726,-0.1749,-0.1779,-0.1772,-0.1854,-0.1833,-0.184,-0.1873,-0.1926,-0.193,-0.1934,-0.1975,-0.1984,-0.1992,0,0,0,0,0,0,-0.1543,-0.1578,-0.159,-0.1623,-0.1656,-0.1684,-0.1711,-0.173,-0.1773,-0.1785,-0.1796,-0.1804,-0.1862,-0.1864,-0.184,-0.1919,-0.1889,-0.1894,-0.1918,-0.1927,-0.1934,-0.1922,-0.182,0,0,0,0,0,-0.1549,-0.1575,-0.1608,-0.1637,-0.1655,-0.1688,-0.1712,-0.1734,-0.1768,-0.1788,-0.1817,-0.1848,-0.1879,-0.19,-0.1927,-0.197,-0.195,-0.1996,-0.2003,-0.2009,-0.2006,-0.2012,-0.2019,-0.1948,-0.1948,-0.1948,0,0,-0.1557,-0.1579,-0.1595,-0.1638,-0.1665,-0.17,-0.1704,-0.1749,-0.1786,-0.1788,-0.1856,-0.1878,-0.1898,-0.1948,-0.1973,-0.1956,-0.2018,-0.2014,-0.2019,-0.2012,-0.2017,-0.2023,-0.2029,-0.1951,-0.1951,-0.195,0,0,-0.1573,-0.1603,-0.1628,-0.1658,-0.1705,-0.1727,-0.1746,-0.1794,-0.1826,-0.1885,-0.1898,-0.1941,-0.1992,-0.201,-0.2024,-0.2087,-0.2057,-0.2101,-0.2126,-0.2133,-0.2138,-0.2143,-0.2115,-0.2116,-0.2102,-0.2102,-0.2102,0,-0.1583,-0.1614,-0.1642,-0.1674,-0.1704,-0.1742,-0.1778,-0.1816,-0.1879,-0.1906,-0.1916,-0.1998,-0.2019,-0.2067,-0.2091,-0.2102,-0.2087,-0.209,-0.214,-0.2144,-0.2148,-0.2118,-0.2119,-0.2105,-0.2104,-0.2104,-0.2104,0,-0.1608,-0.1646,-0.1665,-0.1716,-0.1754,-0.1793,-0.1843,-0.1892,-0.1935,-0.1966,-0.2036,-0.2067,-0.2109,-0.213,-0.2131,-0.2175,-0.2148,-0.2148,-0.2113,-0.2157,-0.2124,-0.2124,-0.2109,-0.2108,-0.2107,-0.2106,0,0,-0.1593,-0.1668,-0.1678,-0.1707,-0.178,-0.1809,-0.1879,-0.194,-0.1979,-0.2046,-0.209,-0.2156,-0.2169,-0.2185,-0.2198,-0.2208,-0.2223,-0.2192,-0.2191,-0.2152,-0.2211,-0.2053,-0.2037,-0.2231,-0.2232,-0.2232,-0.2172,0,-0.1605,-0.1663,-0.1704,-0.1768,-0.1799,-0.186,-0.1915,-0.1979,-0.2032,-0.2086,-0.2129,-0.2178,-0.2191,-0.2213,-0.223,-0.223,-0.2227,-0.2237,-0.2183,-0.2181,-0.2026,-0.2034,-0.2235,-0.2172,-0.2172,-0.2172,-0.2172,0,-0.1607,-0.1647,-0.1709,-0.1785,-0.1806,-0.1856,-0.1941,-0.1996,-0.2076,-0.2116,-0.2172,-0.22,-0.2244,-0.2241,-0.2256,-0.2261,-0.2239,-0.2229,-0.2226,-0.2059,-0.2023,-0.2123,-0.2172,-0.2172,-0.2172,-0.2172,-0.2172,0,-0.156,-0.1646,-0.1695,-0.1724,-0.1819,-0.1864,-0.192,-0.2007,-0.2047,-0.2134,-0.216,-0.222,-0.2242,-0.2248,-0.2238,-0.225,-0.2224,-0.2235,-0.2065,-0.2053,-0.2193,-0.2189,-0.2226,-0.2226,-0.2226,-0.2226,-0.2226,0,-0.1535,-0.1576,-0.168,-0.1705,-0.1761,-0.1843,-0.1905,-0.197,-0.205,-0.2079,-0.2168,-0.2179,-0.2247,-0.2242,-0.2233,-0.2133,-0.2218,-0.2054,-0.2026,-0.2214,-0.2213,-0.2192,-0.2189,-0.2224,-0.2224,-0.2225,-0.2225,0,-0.1465,-0.1539,-0.1595,-0.1703,-0.1739,-0.1779,-0.1883,-0.1914,-0.2009,-0.2047,-0.2072,-0.2149,-0.2132,-0.216,-0.2152,-0.2094,-0.2038,-0.1979,-0.2153,-0.2138,-0.1862,-0.1863,-0.1778,-0.1771,-0.1766,-0.1762,-0.1758,0,-0.1428,-0.1453,-0.1571,-0.1599,-0.1651,-0.1725,-0.1763,-0.1878,-0.1902,-0.2002,-0.1993,-0.2022,-0.205,-0.1898,-0.1958,-0.1898,-0.1883,-0.1842,-0.1874,-0.1834,-0.1817,-0.1825,-0.1833,-0.175,-0.1749,-0.1747,-0.1746,0,-0.1348,-0.1406,-0.1451,-0.1508,-0.1561,-0.1605,-0.1669,-0.167,-0.1782,-0.1888,-0.1847,-0.1829,-0.1794,-0.1779,-0.1734,-0.1707,-0.1869,-0.1788,-0.1799,-0.1828,-0.18,-0.179,-0.1803,-0.1728,-0.1731,-0.1732,-0.1733,0,-0.1284,-0.1295,-0.1359,-0.1392,-0.1454,-0.1455,-0.1509,-0.1521,-0.156,-0.1674,-0.1652,-0.169,-0.1762,-0.1676,-0.1646,-0.1591,-0.1575,-0.1538,-0.1562,-0.1583,-0.1549,-0.1486,-0.1276,0,0,0,0,0,-0.1211,-0.1207,-0.123,-0.1262,-0.1315,-0.1345,-0.1426,-0.1483,-0.1592,-0.151,-0.1575,-0.1534,-0.1482,-0.151,-0.1409,-0.1558,-0.1585,-0.1438,-0.1557,-0.1628,-0.1649,-0.1629,0,0,0,0,0,0,-0.1162,-0.1186,-0.1188,-0.1139,-0.1131,-0.1171,-0.1215,-0.1291,-0.1252,-0.1369,-0.1338,-0.1434,-0.1398,-0.15,-0.1373,-0.138,-0.1422,-0.1474,-0.1469,-0.1616,-0.1635,-0.1652,-0.1638,0,0,0,0,0]},{"header":{"parameterUnit":"m.s-1","parameterCategory":2,"la1":30.2991,"la2":30.254,"lo1":-89.0895,"lo2":-89.0444,"dy":0.0017,"dx":0.0017,"nx":28,"ny":28,"refTime":"2025-01-11T09:00:00:Z","depth":"4","parameterNumber":3,"parameterNumberName":"V-component_of_CURRENTS"},"data":[0,0,0,0,0,0,0,0,0,0,0,0,0,0,0,0,0,0,0,0,0,0,0,0,0,0,0,0,0,0,0,0,0,0,0,0,0,0,0,0,0,0,0,0,0,0,0,0,0,0,0,0,0,0,0,0,0,0,-0.0114,-0.0113,0,-0.0065,-0.0064,-0.0064,-0.0025,-0.0025,-0.0025,-0.0025,0.0052,0.0054,0.0056,0,0,0,0,0,0,0,0,0,0,0,0,0,-0.014,-0.014,-0.0114,-0.0113,-0.0113,-0.0065,-0.0064,-0.0063,-0.0026,-0.0025,-0.0025,-0.0024,0.0052,0.0054,0.0056,0,0,0,0,0,0,0,0,0,0,0,0,0,-0.0113,-0.014,-0.0114,-0.0088,-0.0086,-0.0065,-0.0064,-0.0063,-0.0026,-0.0025,-0.0025,-0.0024,0.0051,0.0053,0.0056,0.0063,0,0,0.0064,0.0065,0,0,0,0,0,0,0,0,-0.0115,-0.0112,-0.0093,-0.009,-0.0087,-0.0051,-0.0045,-0.002,-0.0026,-0.0048,-0.0025,-0.0024,0.0019,0.0025,0.0033,0.0067,0.007,0.0064,0.0066,0.0067,0.0068,0,0,0,0,0,0,0,-0.0117,-0.0114,-0.0094,-0.0092,-0.0089,-0.0068,-0.0064,-0.004,-0.0016,-0.0046,-0.0043,-0.0039,0.0021,0.0031,0.0035,0.0071,0.0064,0.0067,0.0068,0.0069,0.0124,0.0124,0,0,0,0,0,0,-0.0127,-0.0116,-0.0095,-0.0092,-0.0101,-0.0068,-0.0063,-0.0063,-0.0017,-0.001,-0.0039,-0.0037,0.0026,0.0032,0.0038,0.0045,0.0067,0.007,0.0071,0.0124,0.0124,0.0124,0,0,0,0,0,0,-0.0127,-0.0125,-0.0097,-0.0103,-0.0098,-0.0068,-0.0068,-0.0062,-0.0053,-0.0013,-0.0005,-0.0037,0.0027,0.0035,0.0054,0.0048,0.0071,0.0073,0.0124,0.0124,0.0124,0.0061,0,0,0,0,0,0,-0.0128,-0.0126,-0.0132,-0.0104,-0.0098,-0.0093,-0.0068,-0.0061,-0.0052,-0.0048,-0.0008,0.0,0.0028,0.005,0.0057,0.0052,0.0075,0.0125,0.0124,0.0124,0.0063,0.0059,0.0055,0,0,0,0,0,-0.013,-0.0141,-0.0133,-0.013,-0.0106,-0.0093,-0.0089,-0.0065,-0.0052,-0.0054,-0.0025,-0.0001,0.0054,0.0052,0.006,0.0056,0.0125,0.0124,0.0124,0.0065,0.0059,0.0055,0,0,0,0,0,0,-0.0155,-0.0137,-0.0128,-0.0133,-0.0118,-0.0087,-0.0087,-0.007,-0.0049,-0.0046,-0.0005,0.0004,0.0019,0.0047,0.0044,0.0072,0.0094,0.0096,0.0047,0.0042,0.0038,0.0027,0.0077,0,0,0,0,0,-0.0164,-0.0168,-0.0145,-0.015,-0.0145,-0.0117,-0.011,-0.0094,-0.007,-0.0061,-0.0033,-0.0001,0.0025,0.0039,0.0065,0.0078,0.0114,0.0083,0.0079,0.0075,0.0072,0.0116,0.0115,0.0123,0.0123,0.0123,0,0,-0.0175,-0.0166,-0.0168,-0.0156,-0.0142,-0.0143,-0.0112,-0.0105,-0.0104,-0.0056,-0.0048,-0.0017,0.0024,0.0039,0.0049,0.0061,0.0092,0.0075,0.0071,0.0071,0.0115,0.0115,0.0114,0.0123,0.0123,0.0123,0,0,-0.02,-0.0192,-0.0204,-0.0197,-0.0182,-0.0165,-0.0166,-0.014,-0.0127,-0.0116,-0.008,-0.0054,-0.0019,0.0012,0.0031,0.002,0.0066,0.0029,0.0001,0.0042,0.0042,0.0042,0.0087,0.0092,0.0029,0.0029,0.0029,0,-0.0215,-0.0226,-0.0205,-0.0214,-0.0215,-0.0179,-0.0193,-0.0175,-0.0146,-0.0136,-0.0123,-0.0064,-0.0031,-0.0004,-0.0008,0.001,0.0043,0.0014,0.0036,0.0037,0.0038,0.0084,0.009,0.0026,0.0026,0.0027,0.0027,0,-0.0246,-0.0256,-0.0263,-0.0265,-0.0263,-0.0268,-0.0245,-0.0236,-0.0216,-0.0193,-0.0166,-0.0119,-0.0082,-0.0067,-0.0042,-0.0017,0.0006,0.0023,0.0045,0.0033,0.0083,0.009,0.0022,0.0023,0.0024,0.0024,0,0,-0.0277,-0.0284,-0.0288,-0.0301,-0.0292,-0.0295,-0.0294,-0.0281,-0.0279,-0.0242,-0.0231,-0.0183,-0.0151,-0.0126,-0.0084,-0.0047,-0.0011,-0.0015,-0.0011,0.0023,0.0085,0.0072,0.0079,0.0008,0.0009,0.0009,0.0116,0,-0.0308,-0.0342,-0.0335,-0.0367,-0.0382,-0.0359,-0.0363,-0.0346,-0.032,-0.0299,-0.0239,-0.0214,-0.0174,-0.0157,-0.0115,-0.0041,0.0005,-0.0041,0.0097,0.0101,0.0086,0.0086,0.0012,0.0122,0.0124,0.0125,0.0126,0,-0.0342,-0.0361,-0.04,-0.0422,-0.0427,-0.044,-0.0441,-0.0437,-0.0395,-0.0374,-0.033,-0.0279,-0.022,-0.0184,-0.0062,-0.0094,-0.0011,0.0052,0.0058,0.0073,0.0102,0.0139,0.014,0.0139,0.0138,0.0137,0.0136,0,-0.0378,-0.0408,-0.0444,-0.0452,-0.0467,-0.0481,-0.0485,-0.0462,-0.0461,-0.0415,-0.0403,-0.0325,-0.0282,-0.0179,-0.0051,-0.0055,0.0092,0.0106,0.018,0.0181,0.0188,0.0187,0.0202,0.0202,0.0202,0.0202,0.0201,0,-0.0413,-0.0443,-0.0466,-0.0486,-0.0531,-0.0524,-0.0554,-0.0542,-0.0522,-0.0517,-0.0444,-0.0412,-0.0279,-0.0178,-0.0061,0.0076,0.0088,0.0175,0.0205,0.016,0.0154,0.0194,0.0191,0.0206,0.0205,0.0204,0.0203,0,-0.0443,-0.0457,-0.0503,-0.0535,-0.055,-0.0581,-0.0609,-0.0621,-0.0596,-0.0584,-0.0571,-0.0475,-0.0346,-0.02,-0.0023,0.0057,0.0195,0.0249,0.0193,0.0217,0.0261,0.0254,0.0332,0.0332,0.0332,0.0333,0.0333,0,-0.0459,-0.0485,-0.0544,-0.0578,-0.0597,-0.0639,-0.0666,-0.0661,-0.0666,-0.0615,-0.0605,-0.0489,-0.0406,-0.0161,-0.0019,0.0198,0.0232,0.0297,0.0274,0.0252,0.0273,0.0266,0.0259,0.0333,0.0333,0.0333,0.0334,0,-0.0489,-0.0512,-0.0547,-0.062,-0.0665,-0.0709,-0.0739,-0.075,-0.0728,-0.0709,-0.0615,-0.0487,-0.034,-0.016,0.0008,0.0164,0.0242,0.0301,0.0301,0.028,0.0255,0.0274,0.0267,0.0335,0.0335,0.0334,0.0334,0,-0.0507,-0.0541,-0.0591,-0.0651,-0.0713,-0.0754,-0.0771,-0.0757,-0.0752,-0.0685,-0.0652,-0.0486,-0.039,-0.0175,-0.0021,0.0123,0.0157,0.0195,0.0202,0.0202,0.0124,0.0071,0.0119,0,0,0,0,0,-0.0519,-0.0557,-0.0618,-0.068,-0.0741,-0.0771,-0.0806,-0.0808,-0.0788,-0.0723,-0.0683,-0.0536,-0.0305,-0.0205,-0.0061,-0.0029,0.0166,0.0141,0.0209,0.0341,0.034,0.0267,0,0,0,0,0,0,-0.0527,-0.0585,-0.0615,-0.0687,-0.0731,-0.0789,-0.0812,-0.08,-0.0752,-0.0711,-0.0582,-0.0509,-0.0281,-0.0378,-0.0057,-0.0016,0.0043,0.0253,0.0256,0.0342,0.0341,0.0339,0.0264,0,0,0,0,0]}]]